Location: Friedrichshafen
(47.6598°N, 9.4819°E)
Time: 16:34:17
(UTC+01:00)

ISS - Pass Details

Date: 15 November 2017
Orbit: 402 x 407 km, 51.6° (Epoch: 19 November)

Event Time Altitude Azimuth Distance (km) Brightness Sun altitude
Exits shadow 04:55:28 28° 103° (ESE) 792 -1.8 -25.5°
Drops below altitude 10° 04:57:09 10° 108° (ESE) 1,453 -0.1 -25.2°
Sets 04:59:14 0° 110° (ESE) 2,310 1.2 -24.8°
